Regional Weather Roundup
Issued by NWS

Home | Current Version | Previous Version | Graphics & Text | Print | Product List | Glossary On
Versions: 1 2 3 4 5 6 7 8 9 10 11 12 13 14 15 16 17 18 19 20 21 22 23 24 25 26 27
000
ASUS45 KBOU 100507
RWRCO

WEATHER ROUNDUP FOR COLORADO
NATIONAL WEATHER SERVICE DENVER/BOULDER CO
1000 PM MST FRI DEC 09 2016

NOTE: "FAIR" INDICATES FEW OR NO CLOUDS BELOW 12000 FEET WITH NO
SIGNIFICANT WEATHER AND/OR OBSTRUCTIONS TO VISIBILITY.

COZ001>005-013-030-031-100600-
...NORTHWEST COLORADO...

CITY           SKY/WX    TMP DP  RH WIND       PRES   REMARKS
CRAIG          CLOUDY    29  24  82 SE5       30.14S WCI  24
HAYDEN         CLOUDY    28  21  74 SE6       30.14S WCI  22
MEEKER         MOCLDY    39  23  52 VRB7      30.16S
MOUNT WERNER   NOT AVBL
STEAMBOAT SPGS CLOUDY    26  25  96 CALM      30.15R
WALDEN           N/A     34  23  64 SE14G20   30.13S WCI  24
$$

COZ006>008-011-100600-
...WEST CENTRAL VALLEYS...

CITY           SKY/WX    TMP DP  RH WIND       PRES   REMARKS
GRAND JUNCTION FAIR      25  19  78 E5        30.23F WCI  19
MONTROSE       FAIR      24  19  81 SE6       30.25F WCI  17
EAGLE          MOCLDY    28  25  88 CALM      30.22S
RIFLE          FAIR      25  20  81 SE3       30.24S
DELTA          NOT AVBL
NUCLA          FAIR      32  23  69 E8        30.28S WCI  25
$$

COZ017>023-064>068-100600-
...SOUTHWEST COLORADO...

CITY           SKY/WX    TMP DP  RH WIND       PRES   REMARKS
DURANGO        FAIR      23  16  74 CALM      30.28S
CORTEZ         FAIR      26  23  88 E3        30.27S
PAGOSA SPRINGS FAIR      24  19  79 CALM      30.30S
TELLURIDE      FAIR      32  18  57 SE5       30.31S WCI  27
WOLF CREEK PAS FAIR      18  18 100 SW12      30.35F WCI   5
$$

COZ009-010-012-014-032>034-037-058>063-100600-
...CENTRAL COLORADO...

CITY           SKY/WX    TMP DP  RH WIND       PRES   REMARKS
ASPEN          CLOUDY    26  23  88 S9        30.19F WCI  17
BUENA VISTA    FAIR      38  17  42 SW13G22   30.16S
COPPER MTN     LGT SNOW  27  16  63 MISG      30.21R
BERTHOUD PASS  LGT SNOW  16   5  62 W45G55    30.09F WCI  -8
COTTONWOOD PAS FAIR      36  18  48 W21G48    30.15S
GUNNISON       FAIR      13  11  92 CALM      30.28S
KREMMLING      FAIR      37  27  65 W13       30.16S
LEADVILLE      CLOUDY    29  16  58 N8        30.19F WCI  21
MONARCH PASS   CLOUDY    21  18  86 W43G53    30.33S WCI   0
SALIDA         FAIR      43  18  36 W20G30    30.21S
SUNLIGHT       FAIR      21  19  93 SW18G28   30.27R WCI   6
WILKERSON PASS MOCLDY    23  16  74 SW16G29   30.17F WCI  10
$$

COZ069>075-100600-
...SAN LUIS VALLEY/SANGRE DE CRISTO MOUNTAINS...

CITY           SKY/WX    TMP DP  RH WIND       PRES   REMARKS
ALAMOSA        FAIR      19  13  77 NE3       30.24S
LA VETA PASS   FAIR      23  18  80 NE20G30   30.22F WCI   8
SAGUACHE       FAIR      18  14  86 N7        30.25S WCI   8
$$

COZ035-036-038>040-100600-
...NORTHERN COLORADO FRONT RANGE...

CITY           SKY/WX    TMP DP  RH WIND       PRES   REMARKS
DENVER INTL AP CLOUDY    25  19  78 NE6       30.09R WCI  18
DMNS CITY PARK   N/A     27  20  74 NE3       30.10F
AURORA         MOCLDY    26  23  87 CALM      30.09R
FRONT RANGE AP NOT AVBL
ERIE MUNI ARPT MOCLDY    24  21  87 CALM      30.11F
BOULDER MUN AP MOCLDY    27  21  80 N3        30.10S
CENTENNIAL     MOCLDY    27  24  89 CALM      30.09R
BROOMFIELD     MOCLDY    25  21  86 N9        30.09S WCI  15
FORT COLLINS   FAIR      25  19  80 N5        30.13R WCI  19
LONGMONT       CLOUDY    27  21  78 NE3       30.14S
$$

COZ041-046-047-076>085-087-088-100600-
...PIKES PEAK/PALMER DIVIDE AND SOUTHERN FOOTHILLS...

CITY           SKY/WX    TMP DP  RH WIND       PRES   REMARKS
COLO. SPRINGS  FAIR      29  18  63 N5        30.13R WCI  24
A. F. ACADEMY  FAIR      25  20  83 CALM      30.11R
SCHRIEVER AFB  NOT AVBL
ELLICOTT       FAIR     N/A N/A N/A CALM      30.10S
FALCON         FAIR      26  16  65 NW5       30.13R WCI  21
FORT CARSON    FAIR      28  14  56 W2        30.11S
LIMON          FAIR      16  12  84 CALM      30.11F
MONUMENT HILL  FAIR      34  19  55 SW14      30.10S WCI  24
TRINIDAD       FAIR      33  16  49 W8        30.13R WCI  26
$$

COZ042>045-048>051-090-091-100600-
...NORTHEAST COLORADO...

CITY           SKY/WX    TMP DP  RH WIND       PRES   REMARKS
GREELEY ARPT   CLOUDY    24  19  81 NE8       30.14F WCI  15
AKRON          CLOUDY    21  15  78 E3        30.14R
BURLINGTON     FAIR      25  18  74 S12       30.15F WCI  14
WRAY           NOT AVBL
STERLING       MOCLDY    23  18  80 CALM      30.16F
HOLYOKE        FAIR      25  19  80 E8        30.19F WCI  16
FORT MORGAN    CLOUDY    23  18  78 NE6       30.15S WCI  16
$$

COZ086-089-092>099-100600-
...SOUTHEAST COLORADO...

CITY           SKY/WX    TMP DP  RH WIND       PRES   REMARKS
PUEBLO         FAIR      22  11  62 W3        30.13F
LA JUNTA       FAIR      24  13  62 N5        30.13S WCI  18
LAMAR          FAIR      25  18  74 E14       30.14S WCI  13
SPRINGFIELD      N/A     28  22  78 S7        30.14S WCI  21
$$




USA.gov is the U.S. government's official web portal to all federal, state and local government web resources and services.